TimeEDT,TemperatureF,Dew PointF,Humidity,Sea Level PressureIn,VisibilityMPH,Wind Direction,Wind SpeedMPH,Gust SpeedMPH,PrecipitationIn,Events,Conditions,WindDirDegrees,DateUTC
12:15 AM,32.0,28.4,87,29.98,10.0,NW,8.1,-,N/A,,Overcast,320,2013-03-26 04:15:00
12:35 AM,32.0,28.4,87,29.98,10.0,NW,6.9,-,N/A,Snow,Light Snow,320,2013-03-26 04:35:00
12:55 AM,32.0,28.4,87,29.98,10.0,NW,5.8,-,N/A,,Overcast,320,2013-03-26 04:55:00
1:15 AM,32.0,28.4,87,29.99,10.0,NW,6.9,-,N/A,,Overcast,320,2013-03-26 05:15:00
1:35 AM,32.0,28.4,87,29.99,10.0,NNW,5.8,-,N/A,,Overcast,330,2013-03-26 05:35:00
1:55 AM,32.0,28.4,87,30.00,10.0,NNW,8.1,-,N/A,Snow,Light Snow,330,2013-03-26 05:55:00
2:15 AM,32.0,28.4,87,30.00,10.0,NNW,5.8,-,N/A,,Overcast,330,2013-03-26 06:15:00
2:35 AM,32.0,28.4,87,30.00,10.0,NNW,5.8,-,N/A,,Overcast,330,2013-03-26 06:35:00
2:55 AM,32.0,28.4,87,30.00,10.0,NW,5.8,-,N/A,,Overcast,320,2013-03-26 06:55:00
3:15 AM,32.0,28.4,87,30.01,10.0,NNW,4.6,-,N/A,,Overcast,330,2013-03-26 07:15:00
3:35 AM,32.0,28.4,87,30.01,10.0,NNW,4.6,-,N/A,,Overcast,330,2013-03-26 07:35:00
3:55 AM,32.0,28.4,87,30.01,10.0,NW,4.6,-,N/A,,Overcast,320,2013-03-26 07:55:00
4:15 AM,32.0,28.4,87,30.01,10.0,NW,4.6,-,N/A,,Overcast,310,2013-03-26 08:15:00
4:35 AM,32.0,28.4,87,30.01,10.0,WNW,5.8,-,N/A,,Overcast,300,2013-03-26 08:35:00
4:55 AM,32.0,28.4,87,30.01,10.0,NW,5.8,-,N/A,,Overcast,310,2013-03-26 08:55:00
5:15 AM,32.0,28.4,87,30.02,10.0,NW,5.8,-,N/A,,Overcast,310,2013-03-26 09:15:00
5:35 AM,32.0,28.4,87,30.03,10.0,WNW,5.8,-,N/A,,Overcast,300,2013-03-26 09:35:00
5:55 AM,32.0,28.4,87,30.03,10.0,NW,6.9,-,N/A,,Overcast,310,2013-03-26 09:55:00
6:15 AM,32.0,28.4,87,30.03,10.0,WNW,6.9,-,N/A,,Overcast,300,2013-03-26 10:15:00
6:35 AM,32.0,28.4,87,30.04,10.0,NW,8.1,-,N/A,,Overcast,310,2013-03-26 10:35:00
7:15 AM,32.0,28.4,87,30.05,10.0,NW,8.1,-,N/A,,Overcast,310,2013-03-26 11:15:00
7:35 AM,32.0,28.4,87,30.06,10.0,NW,6.9,-,N/A,,Overcast,310,2013-03-26 11:35:00
7:55 AM,32.0,30.2,93,30.07,10.0,NW,6.9,-,N/A,,Overcast,310,2013-03-26 11:55:00
8:15 AM,32.0,30.2,93,30.07,10.0,NW,6.9,-,N/A,,Overcast,310,2013-03-26 12:15:00
8:35 AM,32.0,30.2,93,30.08,10.0,WNW,8.1,-,N/A,,Overcast,300,2013-03-26 12:35:00
8:55 AM,32.0,30.2,93,30.09,10.0,WNW,8.1,-,N/A,,Overcast,300,2013-03-26 12:55:00
9:15 AM,32.0,30.2,93,30.10,10.0,WNW,6.9,-,N/A,,Overcast,300,2013-03-26 13:15:00
9:35 AM,32.0,30.2,93,30.10,10.0,NW,10.4,-,N/A,,Overcast,310,2013-03-26 13:35:00
9:55 AM,33.8,30.2,87,30.10,10.0,NW,12.7,-,N/A,,Overcast,310,2013-03-26 13:55:00
10:15 AM,32.0,30.2,93,30.11,10.0,NW,11.5,-,N/A,,Overcast,310,2013-03-26 14:15:00
10:35 AM,33.8,30.2,87,30.11,10.0,NW,11.5,-,N/A,,Overcast,320,2013-03-26 14:35:00
10:55 AM,33.8,30.2,87,30.12,10.0,NW,10.4,17.3,N/A,,Overcast,320,2013-03-26 14:55:00
11:15 AM,33.8,30.2,87,30.12,10.0,NW,12.7,-,N/A,,Overcast,320,2013-03-26 15:15:00
11:35 AM,33.8,30.2,87,30.12,10.0,NW,10.4,-,N/A,,Overcast,320,2013-03-26 15:35:00
12:15 PM,35.6,30.2,81,30.13,10.0,NW,11.5,18.4,N/A,,Overcast,320,2013-03-26 16:15:00
12:35 PM,35.6,30.2,81,30.13,10.0,NW,10.4,-,N/A,,Overcast,320,2013-03-26 16:35:00
12:55 PM,35.6,30.2,81,30.13,10.0,NW,8.1,-,N/A,,Mostly Cloudy,310,2013-03-26 16:55:00
1:15 PM,37.4,30.2,75,30.13,10.0,NW,15.0,-,N/A,,Mostly Cloudy,310,2013-03-26 17:15:00
1:35 PM,37.4,28.4,70,30.13,10.0,NW,11.5,-,N/A,,Overcast,320,2013-03-26 17:35:00
1:55 PM,37.4,28.4,70,30.13,10.0,NW,15.0,18.4,N/A,,Overcast,310,2013-03-26 17:55:00
2:15 PM,37.4,28.4,70,30.13,10.0,WNW,15.0,-,N/A,,Overcast,300,2013-03-26 18:15:00
2:35 PM,37.4,28.4,70,30.13,10.0,NW,18.4,-,N/A,,Overcast,310,2013-03-26 18:35:00
2:55 PM,37.4,28.4,70,30.13,10.0,NW,20.7,25.3,N/A,,Overcast,310,2013-03-26 18:55:00
3:15 PM,35.6,26.6,70,30.13,10.0,NW,13.8,21.9,N/A,,Overcast,320,2013-03-26 19:15:00
3:35 PM,35.6,26.6,70,30.13,10.0,NW,15.0,-,N/A,,Overcast,310,2013-03-26 19:35:00
3:55 PM,35.6,26.6,70,30.13,10.0,WNW,17.3,21.9,N/A,,Overcast,290,2013-03-26 19:55:00
4:15 PM,37.4,28.4,70,30.14,10.0,WNW,12.7,18.4,N/A,,Overcast,300,2013-03-26 20:15:00
4:35 PM,35.6,28.4,75,30.14,10.0,NW,13.8,21.9,N/A,,Overcast,310,2013-03-26 20:35:00
4:55 PM,35.6,30.2,81,30.14,10.0,NW,16.1,-,N/A,,Overcast,310,2013-03-26 20:55:00
5:15 PM,35.6,30.2,81,30.15,10.0,WNW,16.1,-,N/A,,Overcast,290,2013-03-26 21:15:00
5:35 PM,35.6,28.4,75,30.15,7.0,NW,15.0,-,N/A,Snow,Light Snow,310,2013-03-26 21:35:00
5:55 PM,35.6,28.4,75,30.15,10.0,NW,16.1,-,N/A,,Overcast,310,2013-03-26 21:55:00
6:15 PM,35.6,28.4,75,30.15,10.0,NW,13.8,-,N/A,,Overcast,310,2013-03-26 22:15:00
6:35 PM,35.6,28.4,75,30.16,10.0,NW,11.5,-,N/A,,Overcast,320,2013-03-26 22:35:00
6:55 PM,35.6,28.4,75,30.17,10.0,NW,15.0,19.6,N/A,,Overcast,310,2013-03-26 22:55:00
7:15 PM,33.8,28.4,81,30.17,10.0,WNW,15.0,-,N/A,,Overcast,300,2013-03-26 23:15:00
7:35 PM,33.8,28.4,81,30.18,10.0,NW,10.4,-,N/A,,Overcast,310,2013-03-26 23:35:00
7:55 PM,33.8,28.4,81,30.18,10.0,NW,11.5,-,N/A,,Overcast,310,2013-03-26 23:55:00
8:15 PM,33.8,28.4,81,30.18,10.0,WNW,10.4,-,N/A,,Overcast,300,2013-03-27 00:15:00
8:35 PM,33.8,28.4,81,30.18,10.0,WNW,10.4,-,N/A,,Overcast,300,2013-03-27 00:35:00
8:55 PM,33.8,28.4,81,30.18,10.0,WNW,8.1,-,N/A,,Overcast,300,2013-03-27 00:55:00
9:15 PM,32.0,28.4,87,30.19,10.0,WNW,6.9,-,N/A,,Overcast,300,2013-03-27 01:15:00
9:35 PM,32.0,28.4,87,30.20,10.0,NW,6.9,-,N/A,,Overcast,310,2013-03-27 01:35:00
9:55 PM,33.8,28.4,81,30.20,10.0,NW,10.4,-,N/A,,Overcast,310,2013-03-27 01:55:00
10:15 PM,32.0,28.4,87,30.21,10.0,WNW,6.9,-,N/A,,Overcast,300,2013-03-27 02:15:00
10:35 PM,32.0,28.4,87,30.21,10.0,WNW,8.1,-,N/A,,Overcast,300,2013-03-27 02:35:00
11:15 PM,32.0,28.4,87,30.20,10.0,WNW,6.9,-,N/A,,Overcast,290,2013-03-27 03:15:00
11:35 PM,32.0,28.4,87,30.20,10.0,West,8.1,-,N/A,,Overcast,280,2013-03-27 03:35:00
11:55 PM,32.0,28.4,87,30.20,10.0,WNW,6.9,-,N/A,,Overcast,290,2013-03-27 03:55:00